When you browse on this site, cookies collect data to enhance your experience and personalize the content and advertising you see.
Visit our Privacy Policy to learn more. By continuing to use the site, you agree to this use of cookies and data.
  • în România
  • Lista ţărilor
  • Pe 7 zile
  • Temperatura apei
  • Hartă satelitară
  • Meteo pe hartă
  • Widget-uri
  • user-avatar
    Intrare

    Meteo pe oră la Pionerskoe

    Astăzi, 19 Februarie, Marţi

    Timp Temperatura Precipitaţii Vânt Presiune Umiditate
    00:00 -13°C° 0 mm 8 m/s 748 mmHg 79%
    01:00 -13°C° 0 mm 8 m/s 749 mmHg 79%
    02:00 -15°C° 0 mm 8 m/s 750 mmHg 80%
    03:00 -15°C° 0 mm 6 m/s 750 mmHg 80%
    04:00 -15°C° 0 mm 7 m/s 750 mmHg 80%
    05:00 -15°C° 0 mm 7 m/s 751 mmHg 80%
    06:00 -17°C° 0 mm 8 m/s 752 mmHg 80%
    07:00 -17°C° 0 mm 8 m/s 753 mmHg 80%
    08:00 -17°C° 0 mm 8 m/s 754 mmHg 79%
    09:00 -18°C° 0 mm 8 m/s 755 mmHg 79%
    10:00 -17°C° 0 mm 8 m/s 755 mmHg 77%
    11:00 -17°C° 0 mm 7 m/s 756 mmHg 76%
    12:00 -15°C° 0 mm 7 m/s 757 mmHg 75%
    13:00 -14°C° 0 mm 7 m/s 757 mmHg 76%
    14:00 -14°C° 0 mm 6 m/s 757 mmHg 76%
    15:00 -13°C° 0 mm 5 m/s 758 mmHg 77%
    16:00 -13°C° 0 mm 5 m/s 758 mmHg 79%
    17:00 -14°C° 0 mm 4 m/s 759 mmHg 82%
    18:00 -15°C° 0 mm 4 m/s 759 mmHg 84%
    19:00 -15°C° 0 mm 4 m/s 759 mmHg 84%
    20:00 -15°C° 0 mm 3 m/s 759 mmHg 85%
    21:00 -15°C° 0 mm 3 m/s 759 mmHg 85%
    22:00 -16°C° 0 mm 4 m/s 758 mmHg 86%
    23:00 -15°C° 0 mm 4 m/s 758 mmHg 86%

    Mâine, 20 Februarie, Miercuri

    Timp Temperatura Precipitaţii Vânt Presiune Umiditate
    00:00 -15°C° 0 mm 4 m/s 758 mmHg 86%
    01:00 -15°C° 0 mm 4 m/s 758 mmHg 87%
    02:00 -15°C° 0 mm 4 m/s 757 mmHg 87%
    03:00 -14°C° 0 mm 4 m/s 757 mmHg 87%
    04:00 -14°C° 0 mm 4 m/s 757 mmHg 87%
    05:00 -12°C° 0 mm 4 m/s 757 mmHg 87%
    06:00 -11°C° 0 mm 4 m/s 757 mmHg 87%
    07:00 -11°C° 0 mm 4 m/s 757 mmHg 87%
    08:00 -11°C° 0 mm 4 m/s 757 mmHg 87%
    09:00 -10°C° 0 mm 4 m/s 757 mmHg 87%
    10:00 -10°C° 0 mm 5 m/s 757 mmHg 85%
    11:00 -8°C° 0 mm 5 m/s 756 mmHg 84%
    12:00 -7°C° 0 mm 5 m/s 756 mmHg 83%
    13:00 -6°C° 0 mm 5 m/s 756 mmHg 82%
    14:00 -6°C° 0 mm 6 m/s 755 mmHg 82%
    15:00 -5°C° 0 mm 6 m/s 755 mmHg 81%
    16:00 -6°C° 0 mm 6 m/s 755 mmHg 82%
    17:00 -8°C° 0 mm 6 m/s 755 mmHg 83%
    18:00 -8°C° 0 mm 6 m/s 755 mmHg 85%
    19:00 -9°C° 0 mm 6 m/s 754 mmHg 84%
    20:00 -9°C° 0 mm 6 m/s 754 mmHg 84%
    21:00 -9°C° 0 mm 6 m/s 754 mmHg 84%
    22:00 -10°C° 0 mm 6 m/s 754 mmHg 84%
    23:00 -10°C° 0 mm 6 m/s 754 mmHg 84%

    Poimâine, 21 Februarie, Joi

    Timp Temperatura Precipitaţii Vânt Presiune Umiditate
    00:00 -10°C° 0 mm 6 m/s 753 mmHg 85%
    01:00 -10°C° 0 mm 6 m/s 753 mmHg 85%
    02:00 -10°C° 0 mm 6 m/s 753 mmHg 85%
    03:00 -10°C° 0 mm 6 m/s 752 mmHg 85%
    04:00 -9°C° 0.2 mm 6 m/s 752 mmHg 87%
    05:00 -9°C° 0.2 mm 6 m/s 751 mmHg 89%
    06:00 -9°C° 0.2 mm 6 m/s 751 mmHg 91%
    07:00 -8°C° 0.2 mm 6 m/s 751 mmHg 92%
    08:00 -6°C° 0.2 mm 6 m/s 751 mmHg 92%
    09:00 -7°C° 0.2 mm 7 m/s 751 mmHg 93%
    10:00 -6°C° 0.1 mm 7 m/s 751 mmHg 93%
    11:00 -4°C° 0.1 mm 7 m/s 750 mmHg 93%
    12:00 -3°C° 0.1 mm 7 m/s 750 mmHg 93%
    13:00 -3°C° 0.4 mm 7 m/s 750 mmHg 93%
    14:00 -3°C° 0.4 mm 7 m/s 749 mmHg 93%
    15:00 -2°C° 0.4 mm 7 m/s 749 mmHg 93%
    16:00 -2°C° 0.4 mm 7 m/s 748 mmHg 93%
    17:00 -2°C° 0.4 mm 7 m/s 748 mmHg 94%
    18:00 -2°C° 0.4 mm 6 m/s 747 mmHg 94%
    19:00 -2°C° 0.1 mm 6 m/s 747 mmHg 94%
    20:00 -1°C° 0.1 mm 5 m/s 747 mmHg 94%
    21:00 -1°C° 0.1 mm 5 m/s 746 mmHg 94%
    22:00 -1°C° 0.1 mm 5 m/s 746 mmHg 93%
    23:00 -2°C° 0.1 mm 5 m/s 746 mmHg 93%

    22 Februarie, Vineri

    Timp Temperatura Precipitaţii Vânt Presiune Umiditate
    00:00 -2°C° 0.1 mm 5 m/s 746 mmHg 92%
    01:00 -4°C° 0.2 mm 5 m/s 745 mmHg 92%
    02:00 -4°C° 0.2 mm 4 m/s 745 mmHg 92%
    03:00 -5°C° 0.2 mm 4 m/s 745 mmHg 92%
    04:00 -8°C° 0 mm 4 m/s 745 mmHg 92%
    05:00 -8°C° 0 mm 3 m/s 745 mmHg 93%
    06:00 -10°C° 0 mm 3 m/s 745 mmHg 93%
    07:00 -10°C° 0 mm 4 m/s 745 mmHg 92%
    08:00 -10°C° 0 mm 5 m/s 745 mmHg 91%
    09:00 -8°C° 0 mm 5 m/s 745 mmHg 90%
    10:00 -8°C° 0.1 mm 6 m/s 746 mmHg 90%
    11:00 -6°C° 0.1 mm 6 m/s 746 mmHg 89%
    12:00 -7°C° 0.1 mm 7 m/s 746 mmHg 89%
    13:00 -6°C° 0.1 mm 7 m/s 747 mmHg 87%
    14:00 -6°C° 0.1 mm 7 m/s 747 mmHg 86%
    15:00 -6°C° 0.1 mm 7 m/s 748 mmHg 84%
    16:00 -6°C° 0 mm 6 m/s 749 mmHg 85%
    17:00 -7°C° 0 mm 5 m/s 749 mmHg 86%
    18:00 -8°C° 0 mm 5 m/s 750 mmHg 87%
    19:00 -8°C° 0 mm 4 m/s 751 mmHg 89%
    20:00 -9°C° 0 mm 4 m/s 752 mmHg 90%
    21:00 -9°C° 0 mm 4 m/s 752 mmHg 91%
    22:00 -9°C° 0 mm 3 m/s 753 mmHg 92%
    23:00 -10°C° 0 mm 3 m/s 754 mmHg 93%

    23 Februarie, Sâmbătă

    Timp Temperatura Precipitaţii Vânt Presiune Umiditate
    00:00 -10°C° 0 mm 3 m/s 754 mmHg 94%
    01:00 -12°C° 0 mm 3 m/s 755 mmHg 94%
    02:00 -13°C° 0 mm 3 m/s 756 mmHg 94%
    03:00 -13°C° 0 mm 2 m/s 756 mmHg 94%
    04:00 -14°C° 0 mm 2 m/s 757 mmHg 94%
    05:00 -15°C° 0 mm 2 m/s 757 mmHg 94%
    06:00 -15°C° 0 mm 2 m/s 758 mmHg 93%
    07:00 -15°C° 0 mm 2 m/s 758 mmHg 93%
    08:00 -15°C° 0 mm 2 m/s 759 mmHg 93%
    09:00 -15°C° 0 mm 2 m/s 760 mmHg 92%
    10:00 -14°C° 0 mm 2 m/s 760 mmHg 91%
    11:00 -13°C° 0 mm 2 m/s 760 mmHg 89%
    12:00 -12°C° 0 mm 2 m/s 761 mmHg 88%
    13:00 -10°C° 0 mm 1 m/s 761 mmHg 88%
    14:00 -10°C° 0 mm 1 m/s 761 mmHg 89%
    15:00 -9°C° 0 mm 1 m/s 762 mmHg 90%
    16:00 -10°C° 0 mm 1 m/s 762 mmHg 89%
    17:00 -11°C° 0 mm 1 m/s 762 mmHg 89%
    18:00 -12°C° 0 mm 1 m/s 763 mmHg 89%
    19:00 -11°C° 0 mm 1 m/s 763 mmHg 90%
    20:00 -11°C° 0 mm 1 m/s 763 mmHg 90%
    21:00 -11°C° 0 mm 1 m/s 764 mmHg 90%
    22:00 -11°C° 0 mm 1 m/s 764 mmHg 90%
    23:00 -11°C° 0 mm 1 m/s 764 mmHg 90%

    24 Februarie, Duminică

    Timp Temperatura Precipitaţii Vânt Presiune Umiditate
    00:00 -11°C° 0 mm 1 m/s 764 mmHg 90%
    01:00 -10°C° 0 mm 1 m/s 764 mmHg 91%
    02:00 -10°C° 0 mm 1 m/s 764 mmHg 91%
    03:00 -10°C° 0 mm 1 m/s 765 mmHg 91%
    04:00 -10°C° 0.1 mm 1 m/s 765 mmHg 92%
    05:00 -10°C° 0.1 mm 1 m/s 765 mmHg 93%
    06:00 -12°C° 0.1 mm 2 m/s 765 mmHg 94%
    07:00 -10°C° 0.2 mm 2 m/s 765 mmHg 94%
    08:00 -10°C° 0.2 mm 2 m/s 765 mmHg 94%
    09:00 -10°C° 0.2 mm 2 m/s 765 mmHg 94%
    10:00 -10°C° 0.2 mm 3 m/s 766 mmHg 94%
    11:00 -10°C° 0.2 mm 3 m/s 766 mmHg 94%
    12:00 -9°C° 0.2 mm 3 m/s 766 mmHg 94%
    13:00 -9°C° 0.2 mm 3 m/s 766 mmHg 94%
    14:00 -9°C° 0.2 mm 3 m/s 766 mmHg 94%
    15:00 -8°C° 0.2 mm 3 m/s 766 mmHg 94%
    16:00 -8°C° 0.2 mm 3 m/s 766 mmHg 95%
    17:00 -9°C° 0.2 mm 3 m/s 766 mmHg 95%
    18:00 -9°C° 0.2 mm 3 m/s 766 mmHg 96%
    19:00 -9°C° 0.1 mm 3 m/s 766 mmHg 96%
    20:00 -9°C° 0.1 mm 3 m/s 766 mmHg 96%
    21:00 -10°C° 0.1 mm 3 m/s 767 mmHg 96%
    22:00 -10°C° 0 mm 3 m/s 767 mmHg 96%
    23:00 -10°C° 0 mm 3 m/s 767 mmHg 96%
    Arată mai mult